TimeCST,TemperatureF,Dew PointF,Humidity,Sea Level PressureIn,VisibilityMPH,Wind Direction,Wind SpeedMPH,Gust SpeedMPH,PrecipitationIn,Events,Conditions,WindDirDegrees,DateUTC
12:15 AM,66.2,64.4,94,30.19,2.0,North,21.9,-,N/A,,Overcast,360,2013-12-28 06:15:00
12:35 AM,66.2,64.4,94,30.17,0.5,North,25.3,-,N/A,,Overcast,10,2013-12-28 06:35:00
12:55 AM,66.2,64.4,94,30.17,1.5,North,25.3,-,N/A,,Overcast,350,2013-12-28 06:55:00
1:15 AM,66.2,64.4,94,30.16,0.8,North,26.5,-,N/A,,Overcast,350,2013-12-28 07:15:00
1:35 AM,66.2,64.4,94,30.14,1.5,North,27.6,-,N/A,,Overcast,360,2013-12-28 07:35:00
1:55 AM,66.2,64.4,94,30.13,1.5,North,26.5,-,N/A,,Overcast,350,2013-12-28 07:55:00
2:15 AM,66.2,64.4,94,30.13,1.8,North,21.9,32.2,N/A,,Overcast,350,2013-12-28 08:15:00
2:35 AM,66.2,64.4,94,30.11,3.0,North,27.6,-,N/A,,Overcast,350,2013-12-28 08:35:00
2:55 AM,66.2,64.4,94,30.10,4.0,NNW,31.1,-,N/A,,Overcast,340,2013-12-28 08:55:00
3:15 AM,66.2,64.4,94,30.09,1.0,North,29.9,-,N/A,,Overcast,350,2013-12-28 09:15:00
3:35 AM,66.2,64.4,94,30.09,1.5,NNW,31.1,-,N/A,,Overcast,340,2013-12-28 09:35:00
3:55 AM,66.2,62.6,88,30.08,4.0,NNW,32.2,-,N/A,,Overcast,340,2013-12-28 09:55:00
4:15 AM,64.4,62.6,94,30.08,1.0,NNW,28.8,35.7,N/A,,Overcast,330,2013-12-28 10:15:00
4:35 AM,64.4,62.6,94,30.08,2.0,NNW,28.8,-,N/A,,Overcast,340,2013-12-28 10:35:00
4:55 AM,66.2,62.6,88,30.07,0.5,NNW,31.1,-,N/A,Fog,Fog,340,2013-12-28 10:55:00
5:15 AM,66.2,62.6,88,30.08,2.5,NNW,31.1,-,N/A,,Overcast,340,2013-12-28 11:15:00
5:35 AM,66.2,62.6,88,30.09,1.0,NNW,29.9,-,N/A,,Overcast,340,2013-12-28 11:35:00
5:55 AM,64.4,62.6,94,30.09,1.8,NNW,28.8,-,N/A,,Overcast,340,2013-12-28 11:55:00
6:15 AM,66.2,62.6,88,30.09,4.0,NNW,28.8,-,N/A,,Overcast,340,2013-12-28 12:15:00
6:35 AM,66.2,62.6,88,30.09,3.0,North,27.6,-,N/A,,Overcast,350,2013-12-28 12:35:00
6:55 AM,66.2,62.6,88,30.09,5.0,NNW,25.3,-,N/A,,Overcast,340,2013-12-28 12:55:00
7:15 AM,66.2,62.6,88,30.10,4.0,NNW,26.5,-,N/A,,Overcast,340,2013-12-28 13:15:00
7:35 AM,66.2,62.6,88,30.10,5.0,NNW,24.2,-,N/A,,Overcast,330,2013-12-28 13:35:00
7:55 AM,66.2,62.6,88,30.12,3.0,NNW,21.9,-,N/A,,Overcast,340,2013-12-28 13:55:00
8:15 AM,66.2,64.4,94,30.12,5.0,NNW,20.7,-,N/A,,Overcast,330,2013-12-28 14:15:00
8:35 AM,66.2,62.6,88,30.12,2.5,NNW,20.7,-,N/A,,Overcast,330,2013-12-28 14:35:00
8:55 AM,66.2,62.6,88,30.12,4.0,NW,23.0,-,N/A,,Overcast,320,2013-12-28 14:55:00
9:15 AM,66.2,62.6,88,30.12,6.0,NW,24.2,-,N/A,,Overcast,320,2013-12-28 15:15:00
9:35 AM,66.2,62.6,88,30.13,6.0,NW,25.3,-,N/A,,Haze,320,2013-12-28 15:35:00
9:55 AM,66.2,62.6,88,30.13,6.0,NW,25.3,-,N/A,,Haze,320,2013-12-28 15:55:00
10:15 AM,66.2,62.6,88,30.11,6.0,NW,27.6,-,N/A,,Haze,320,2013-12-28 16:15:00
10:35 AM,66.2,62.6,88,30.10,7.0,NNW,26.5,-,N/A,,Mostly Cloudy,330,2013-12-28 16:35:00
10:55 AM,66.2,62.6,88,30.10,7.0,NNW,23.0,-,N/A,,Overcast,330,2013-12-28 16:55:00
11:15 AM,68.0,62.6,83,30.09,7.0,NNW,21.9,-,N/A,,Overcast,330,2013-12-28 17:15:00
11:35 AM,66.2,60.8,83,30.09,7.0,NNW,23.0,-,N/A,,Overcast,330,2013-12-28 17:35:00
11:55 AM,66.2,60.8,83,30.07,7.0,NNW,20.7,-,N/A,,Overcast,330,2013-12-28 17:55:00
12:15 PM,66.2,62.6,88,30.06,7.0,NNW,20.7,-,N/A,,Overcast,330,2013-12-28 18:15:00
12:35 PM,66.2,60.8,83,30.05,8.0,NNW,19.6,-,N/A,,Overcast,330,2013-12-28 18:35:00
12:55 PM,66.2,60.8,83,30.04,7.0,NNW,21.9,-,N/A,,Overcast,340,2013-12-28 18:55:00
1:15 PM,66.2,60.8,83,30.04,8.0,NNW,19.6,-,N/A,,Overcast,330,2013-12-28 19:15:00
1:35 PM,66.2,60.8,83,30.03,8.0,NNW,18.4,-,N/A,,Overcast,340,2013-12-28 19:35:00
1:55 PM,66.2,60.8,83,30.03,8.0,NNW,17.3,-,N/A,,Overcast,340,2013-12-28 19:55:00
2:15 PM,66.2,60.8,83,30.04,7.0,NNW,16.1,-,N/A,,Overcast,330,2013-12-28 20:15:00
2:35 PM,66.2,60.8,83,30.04,6.0,NW,18.4,-,N/A,,Haze,320,2013-12-28 20:35:00
2:55 PM,66.2,60.8,83,30.04,4.0,NW,17.3,-,N/A,,Haze,320,2013-12-28 20:55:00
3:15 PM,64.4,60.8,88,30.03,4.0,NW,18.4,-,N/A,,Haze,320,2013-12-28 21:15:00
3:35 PM,66.2,60.8,83,30.04,6.0,NW,17.3,-,N/A,,Haze,320,2013-12-28 21:35:00
3:55 PM,66.2,60.8,83,30.04,7.0,NW,18.4,-,N/A,,Overcast,320,2013-12-28 21:55:00
4:15 PM,66.2,60.8,83,30.04,7.0,NW,17.3,23.0,N/A,,Overcast,310,2013-12-28 22:15:00
4:35 PM,66.2,60.8,83,30.04,6.0,NW,19.6,-,N/A,,Haze,320,2013-12-28 22:35:00
4:55 PM,66.2,60.8,83,30.04,6.0,NW,17.3,-,N/A,,Haze,320,2013-12-28 22:55:00
5:15 PM,66.2,60.8,83,30.04,6.0,NW,19.6,-,N/A,,Haze,320,2013-12-28 23:15:00
5:35 PM,68.0,60.8,78,30.04,6.0,NW,18.4,-,N/A,,Haze,310,2013-12-28 23:35:00
5:55 PM,68.0,60.8,78,30.04,6.0,NW,18.4,-,N/A,,Haze,320,2013-12-28 23:55:00
6:15 PM,68.0,60.8,78,30.05,6.0,NW,18.4,-,N/A,,Haze,310,2013-12-29 00:15:00
6:35 PM,66.2,60.8,83,30.05,9.0,NNW,12.7,-,N/A,,Overcast,330,2013-12-29 00:35:00
6:55 PM,68.0,60.8,78,30.05,9.0,NNW,13.8,-,N/A,,Overcast,330,2013-12-29 00:55:00
7:15 PM,66.2,60.8,83,30.06,9.0,NNW,12.7,-,N/A,,Overcast,330,2013-12-29 01:15:00
7:35 PM,66.2,60.8,83,30.06,9.0,NNW,11.5,-,N/A,,Overcast,340,2013-12-29 01:35:00
7:55 PM,66.2,60.8,83,30.06,8.0,NNW,12.7,-,N/A,,Overcast,330,2013-12-29 01:55:00
8:15 PM,68.0,60.8,78,30.06,6.0,NW,12.7,-,N/A,,Haze,310,2013-12-29 02:15:00
8:35 PM,68.0,60.8,78,30.07,6.0,NW,12.7,-,N/A,,Haze,310,2013-12-29 02:35:00
8:55 PM,68.0,60.8,78,30.07,6.0,WNW,16.1,-,N/A,,Haze,300,2013-12-29 02:55:00
9:15 PM,68.0,60.8,78,30.07,7.0,NW,13.8,-,N/A,,Overcast,310,2013-12-29 03:15:00
9:35 PM,68.0,60.8,78,30.07,6.0,WNW,16.1,-,N/A,,Haze,300,2013-12-29 03:35:00
9:55 PM,68.0,60.8,78,30.07,6.0,NW,12.7,-,N/A,,Haze,310,2013-12-29 03:55:00
10:15 PM,68.0,60.8,78,30.07,6.0,NW,13.8,-,N/A,,Haze,310,2013-12-29 04:15:00
10:35 PM,68.0,60.8,78,30.07,7.0,WNW,17.3,-,N/A,,Overcast,300,2013-12-29 04:35:00
10:55 PM,68.0,60.8,78,30.06,7.0,NW,13.8,-,N/A,,Overcast,310,2013-12-29 04:55:00
11:15 PM,68.0,60.8,78,30.05,6.0,NW,9.2,15.0,N/A,,Haze,320,2013-12-29 05:15:00
11:35 PM,68.0,59.0,73,30.05,6.0,NW,9.2,-,N/A,,Haze,310,2013-12-29 05:35:00
11:55 PM,68.0,60.8,78,30.07,7.0,WNW,15.0,-,N/A,,Overcast,300,2013-12-29 05:55:00